Satellite: ORSTED
Catalog number: 25635
Epoch time:      103068.98815849
Element set:     850 
Inclination:       96.4524 deg
RA of node:        50.5775 deg
Eccentricity:    0.0143698
Arg of perigee:   267.7726 deg
Mean anomaly:      90.7010 deg
Mean motion:   14.44879914 rev/day
Decay rate:    1.1920E-005 rev/day^2
Epoch rev:           21274
Checksum:              339

Satellite: SUNSAT
Catalog number: 25636
Epoch time:      103068.92530847
Element set:     740 
Inclination:       96.4565 deg
RA of node:        49.1474 deg
Eccentricity:    0.0147588
Arg of perigee:   274.6004 deg
Mean anomaly:      83.8348 deg
Mean motion:   14.42974907 rev/day
Decay rate:    5.7699E-006 rev/day^2
Epoch rev:           21260
Checksum:              349

Satellite: UOSAT 12
Catalog number: 25693
Epoch time:      103069.12581192
Element set:     774 
Inclination:       64.5595 deg
RA of node:       310.9280 deg
Eccentricity:    0.0022098
Arg of perigee:   314.8944 deg
Mean anomaly:      45.0385 deg
Mean motion:   14.76413587 rev/day
Decay rate:    6.6500E-006 rev/day^2
Epoch rev:           20914
Checksum:              322

Satellite: FENGYUN 1C
Catalog number: 25730
Epoch time:      103069.56881902
Element set:     784 
Inclination:       98.6328 deg
RA of node:        93.2183 deg
Eccentricity:    0.0013755
Arg of perigee:   308.5679 deg
Mean anomaly:      51.4260 deg
Mean motion:   14.11736234 rev/day
Decay rate:   -2.9999E-008 rev/day^2
Epoch rev:           19745
Checksum:              346

Satellite: ASTRA 1H
Catalog number: 25785
Epoch time:      103064.00000000
Element set:     374 
Inclination:        0.0122 deg
RA of node:       319.8851 deg
Eccentricity:    0.0002995
Arg of perigee:    65.1991 deg
Mean anomaly:     156.4596 deg
Mean motion:    1.00273184 rev/day
Decay rate:    1.1099E-006 rev/day^2
Epoch rev:            1364
Checksum:              262

Satellite: TERRA
Catalog number: 25994
Epoch time:      103069.22665529
Element set:     768 
Inclination:       98.1972 deg
RA of node:       145.1421 deg
Eccentricity:    0.0000942
Arg of perigee:    91.0458 deg
Mean anomaly:     269.0848 deg
Mean motion:   14.57089532 rev/day
Decay rate:   -2.5199E-006 rev/day^2
Epoch rev:           17153
Checksum:              458

Satellite: JAWSAT
Catalog number: 26061
Epoch time:      103068.85468473
Element set:     783 
Inclination:      100.2025 deg
RA of node:       129.4959 deg
Eccentricity:    0.0034838
Arg of perigee:   224.5147 deg
Mean anomaly:     135.3234 deg
Mean motion:   14.37848198 rev/day
Decay rate:    7.2399E-006 rev/day^2
Epoch rev:           16330
Checksum:              326

Satellite: OPAL
Catalog number: 26063
Epoch time:      103068.72298333
Element set:     737 
Inclination:      100.2070 deg
RA of node:       126.7725 deg
Eccentricity:    0.0036702
Arg of perigee:   233.0850 deg
Mean anomaly:     126.6965 deg
Mean motion:   14.35489321 rev/day
Decay rate:    2.1299E-006 rev/day^2
Epoch rev:           16313
Checksum:              293

Satellite: ASUSAT
Catalog number: 26065
Epoch time:      103068.54008075
Element set:     751 
Inclination:      100.2086 deg
RA of node:       126.7131 deg
Eccentricity:    0.0036998
Arg of perigee:   234.1851 deg
Mean anomaly:     125.5889 deg
Mean motion:   14.35517912 rev/day
Decay rate:    2.6299E-006 rev/day^2
Epoch rev:           16310
Checksum:              305

Satellite: GOES 11
Catalog number: 26352
Epoch time:      103068.51136664
Element set:     57 
Inclination:        0.1873 deg
RA of node:       101.7936 deg
Eccentricity:    0.0003256
Arg of perigee:   206.0585 deg
Mean anomaly:     289.2370 deg
Mean motion:    1.00267417 rev/day
Decay rate:   -2.9000E-007 rev/day^2
Epoch rev:            1042
Checksum:              263

Satellite: EUTELSAT W4
Catalog number: 26369
Epoch time:      103064.82065028
Element set:     358 
Inclination:        0.0472 deg
RA of node:       341.7393 deg
Eccentricity:    0.0002698
Arg of perigee:   358.9077 deg
Mean anomaly:     153.9803 deg
Mean motion:    1.00272472 rev/day
Decay rate:    1.5099E-006 rev/day^2
Epoch rev:            1020
Checksum:              293

Satellite: FENGYUN 2B
Catalog number: 26382
Epoch time:      103069.24921484
Element set:     809 
Inclination:        0.5156 deg
RA of node:       288.7662 deg
Eccentricity:    0.0001553
Arg of perigee:   206.6890 deg
Mean anomaly:     226.1435 deg
Mean motion:    1.00266780 rev/day
Decay rate:   -3.2499E-006 rev/day^2
Epoch rev:             991
Checksum:              308

Satellite: EUTELSAT W1
Catalog number: 26487
Epoch time:      103065.89376720
Element set:     366 
Inclination:        0.0274 deg
RA of node:       285.7402 deg
Eccentricity:    0.0003825
Arg of perigee:    55.4199 deg
Mean anomaly:     154.7436 deg
Mean motion:    1.00274466 rev/day
Decay rate:    6.6000E-007 rev/day^2
Epoch rev:             918
Checksum:              297

Satellite: ASTRA 2B
Catalog number: 26494
Epoch time:      103064.00000000
Element set:     257 
Inclination:        0.0178 deg
RA of node:       354.5658 deg
Eccentricity:    0.0005000
Arg of perigee:   302.8402 deg
Mean anomaly:     253.0807 deg
Mean motion:    1.00276704 rev/day
Decay rate:    1.4099E-006 rev/day^2
Epoch rev:             906
Checksum:              235

Satellite: NOAA 16
Catalog number: 26536
Epoch time:      103069.42419802
Element set:     240 
Inclination:       98.9051 deg
RA of node:        17.5644 deg
Eccentricity:    0.0009783
Arg of perigee:   248.6176 deg
Mean anomaly:     111.3973 deg
Mean motion:   14.11915435 rev/day
Decay rate:    1.9799E-006 rev/day^2
Epoch rev:           12695
Checksum:              336

Satellite: SAUDISAT 1A
Catalog number: 26545
Epoch time:      103069.01935598
Element set:     422 
Inclination:       64.5603 deg
RA of node:       332.1415 deg
Eccentricity:    0.0050736
Arg of perigee:   235.6617 deg
Mean anomaly:     123.9623 deg
Mean motion:   14.79035788 rev/day
Decay rate:    1.6210E-005 rev/day^2
Epoch rev:           13209
Checksum:              299

Satellite: UNISAT
Catalog number: 26547
Epoch time:      103068.59000186
Element set:     442 
Inclination:       64.5593 deg
RA of node:       335.6188 deg
Eccentricity:    0.0058030
Arg of perigee:   237.4102 deg
Mean anomaly:     122.1409 deg
Mean motion:   14.79834885 rev/day
Decay rate:    2.9509E-005 rev/day^2
Epoch rev:           13200
Checksum:              408

Satellite: TIUNGSAT 1
Catalog number: 26548
Epoch time:      103068.74168139
Element set:     425 
Inclination:       64.5597 deg
RA of node:       325.6709 deg
Eccentricity:    0.0044198
Arg of perigee:   234.7837 deg
Mean anomaly:     124.9092 deg
Mean motion:   14.81339806 rev/day
Decay rate:    2.1469E-005 rev/day^2
Epoch rev:           13220
Checksum:              334

Satellite: SAUDISAT 1B
Catalog number: 26549
Epoch time:      103069.20475922
Element set:     712 
Inclination:       64.5502 deg
RA of node:       335.7825 deg
Eccentricity:    0.0055153
Arg of perigee:   235.5790 deg
Mean anomaly:     124.0094 deg
Mean motion:   14.77971355 rev/day
Decay rate:    1.6640E-005 rev/day^2
Epoch rev:           13204
Checksum:              398

Satellite: AMSAT OSCAR 40
Catalog number: 26609
Epoch time:      103066.11783278
Element set:     314 
Inclination:        8.2200 deg
RA of node:        61.4070 deg
Eccentricity:    0.7949170
Arg of perigee:   150.5515 deg
Mean anomaly:     300.1580 deg
Mean motion:    1.25596136 rev/day
Decay rate:   -2.4399E-006 rev/day^2
Epoch rev:            1079
Checksum:              287

Satellite: GOES 12
Catalog number: 26871
Epoch time:      103066.33024319
Element set:     855 
Inclination:        0.2857 deg
RA of node:       276.3231 deg
Eccentricity:    0.0002420
Arg of perigee:    15.3254 deg
Mean anomaly:     262.7439 deg
Mean motion:    1.00360068 rev/day
Decay rate:   -1.9700E-006 rev/day^2
Epoch rev:             600
Checksum:              255

Satellite: PCSAT
Catalog number: 26931
Epoch time:      103068.91076250
Element set:     423 
Inclination:       67.0461 deg
RA of node:       205.8169 deg
Eccentricity:    0.0005156
Arg of perigee:   269.1964 deg
Mean anomaly:      90.8547 deg
Mean motion:   14.29126232 rev/day
Decay rate:    2.9699E-006 rev/day^2
Epoch rev:            7511
Checksum:              316

Satellite: SAPPHIRE
Catalog number: 26932
Epoch time:      103068.95638807
Element set:     417 
Inclination:       67.0523 deg
RA of node:       205.3991 deg
Eccentricity:    0.0004279
Arg of perigee:   248.0780 deg
Mean anomaly:     111.9865 deg
Mean motion:   14.29301938 rev/day
Decay rate:    1.8299E-006 rev/day^2
Epoch rev:            7514
Checksum:              332

Satellite: ENVISAT
Catalog number: 27386
Epoch time:      103068.96625040
Element set:     987 
Inclination:       98.5524 deg
RA of node:       137.2418 deg
Eccentricity:    0.0001033
Arg of perigee:    84.7572 deg
Mean anomaly:     275.3730 deg
Mean motion:   14.32238263 rev/day
Decay rate:   -6.1599E-006 rev/day^2
Epoch rev:            5352
Checksum:              320

Satellite: IDEFIX/ARIANE 
Catalog number: 27422
Epoch time:      103069.22176649
Element set:     251 
Inclination:       98.6927 deg
RA of node:       148.3288 deg
Eccentricity:    0.0013424
Arg of perigee:    92.0163 deg
Mean anomaly:     268.2567 deg
Mean motion:   14.27980980 rev/day
Decay rate:    3.4499E-006 rev/day^2
Epoch rev:            4426
Checksum:              339

